Cosmos 1937 Rocket - Orbit

View from above orbital plane
View from above orbital plane
View from above satellite
View from above satellite

Ground track
Ground track

The orbit data is extracted from the following two-line orbital elements,

1 19039U 88029B   13168.38736522  .00000084  00000-0  36416-4 0  7695
2 19039 074.0497 108.5358 0025122 283.3809 224.5203 14.37800896320852
Epoch (UTC): 17 June 2013 09:17:48
Eccentricity: 0.0025122
inclination: 74.0497°
perigee height: 748 km
apogee height: 784 km
right ascension of ascending node: 108.5358°
argument of perigee: 283.3809°
revolutions per day: 14.37800896
mean anomaly at epoch: 224.5203°
orbit number at epoch: 32085

The dashed part of the orbit path shows where the satellite is in the earth's shadow,  

Developed and maintained by Chris Peat, Heavens-Above GmbH. Please read the updated FAQ before sending e-mail. Imprint. DLR